,,Stat5,,Stat1,,Stat2,,Stat3,,Stat4,,Wind1,,Wind1,
time,status,PA1M_AVG,status,PR1M_SUM,status,RH1M_AVG,status,SR1M_AVG,status,TA1M_AVG,status,W1dAve1m,status,W1sAve1m,
2003-04-21, 00:00:00,VALID,916.675,VALID,0,VALID,100,VALID,0.135847,VALID,19.8875,VALID,124,VALID,0.878806,
2003-04-21, 00:01:00,VALID,916.687,VALID,0,VALID,100,VALID,0.169808,VALID,19.9522,VALID,114,VALID,1.21289,
2003-04-21, 00:02:00,VALID,916.699,VALID,0,VALID,100,VALID,0.254712,VALID,20.0161,VALID,111,VALID,1.15246,
2003-04-21, 00:03:00,VALID,916.7,VALID,0,VALID,100,VALID,0.20377,VALID,20.0519,VALID,119,VALID,1.10262,
2003-04-21, 00:04:00,VALID,916.725,VALID,0,VALID,100,VALID,0.186789,VALID,20.022,VALID,119,VALID,0.402344,
2003-04-21, 00:05:00,VALID,916.724,VALID,0,VALID,100,VALID,0.254712,VALID,19.9939,VALID,102,VALID,0.916797,
2003-04-21, 00:06:00,VALID,916.735,VALID,0,VALID,100,VALID,0.254712,VALID,19.9902,VALID,106,VALID,1.03065,
2003-04-21, 00:07:00,VALID,916.723,VALID,0,VALID,100,VALID,0.20377,VALID,19.9875,VALID,88,VALID,0.885074,
2003-04-21, 00:08:00,VALID,916.737,VALID,0,VALID,100,VALID,0.186789,VALID,19.9775,VALID,80,VALID,0.87283,
2003-04-21, 00:09:00,VALID,916.739,VALID,0,VALID,100,VALID,0.254712,VALID,19.9514,VALID,78,VALID,0.98712,
2003-04-21, 00:10:00,VALID,916.752,VALID,0,VALID,100,VALID,0.169808,VALID,19.9415,VALID,71,VALID,0.90625,
2003-04-21, 00:11:00,VALID,916.766,VALID,0,VALID,100,VALID,0.237732,VALID,19.9123,VALID,68,VALID,0.740954,
2003-04-21, 00:12:00,VALID,916.77,VALID,0,VALID,100,VALID,0.169808,VALID,19.9188,VALID,63,VALID,0.575591,
2003-04-21, 00:13:00,VALID,916.776,VALID,0,VALID,100,VALID,0.254712,VALID,19.9191,VALID,62,VALID,0.677998,
2003-04-21, 00:14:00,VALID,916.769,VALID,0,VALID,100,VALID,0.237732,VALID,19.9288,VALID,63,VALID,0.624383,
2003-04-21, 00:15:00,VALID,916.773,VALID,0,VALID,100,VALID,0.237732,VALID,19.9288,VALID,45,VALID,0.583615,
2003-04-21, 00:16:00,VALID,916.767,VALID,0,VALID,100,VALID,0.186789,VALID,19.9278,VALID,36,VALID,0.610176,
2003-04-21, 00:17:00,VALID,916.759,VALID,0,VALID,100,VALID,0.237732,VALID,19.9412,VALID,29,VALID,0.604941,
2003-04-21, 00:18:00,VALID,916.757,VALID,0,VALID,100,VALID,0.254712,VALID,19.9447,VALID,31,VALID,0.599918,
2003-04-21, 00:19:00,VALID,916.753,VALID,0,VALID,100,VALID,0.20377,VALID,19.9449,VALID,41,VALID,0.627455,
2003-04-21, 00:20:00,VALID,916.743,VALID,0,VALID,100,VALID,0.220751,VALID,19.9609,VALID,41,VALID,0.512035,
2003-04-21, 00:21:00,VALID,916.743,VALID,0,VALID,100,VALID,0.220751,VALID,19.9377,VALID,41,VALID,0.370593,
2003-04-21, 00:22:00,VALID,916.737,VALID,0,VALID,100,VALID,0.237732,VALID,19.9648,VALID,41,VALID,0.289955,
2003-04-21, 00:23:00,VALID,916.745,VALID,0,VALID,100,VALID,0.169808,VALID,19.9517,VALID,41,VALID,0.327914,
2003-04-21, 00:24:00,VALID,916.745,VALID,0,VALID,100,VALID,0.237732,VALID,19.9576,VALID,41,VALID,0.228516,
2003-04-21, 00:25:00,VALID,916.759,VALID,0,VALID,100,VALID,0.237732,VALID,19.9932,VALID,35,VALID,0.272461,
2003-04-21, 00:26:00,VALID,916.761,VALID,0,VALID,100,VALID,0.237732,VALID,20.0641,VALID,24,VALID,0.292468,
2003-04-21, 00:27:00,VALID,916.773,VALID,0,VALID,100,VALID,0.237732,VALID,20.1166,VALID,24,VALID,0.0715461,
2003-04-21, 00:28:00,VALID,916.787,VALID,0,VALID,100,VALID,0.254712,VALID,20.1357,VALID,24,VALID,0.0805921,
2003-04-21, 00:29:00,VALID,916.811,VALID,0,VALID,100,VALID,0.271693,VALID,20.1422,VALID,24,VALID,0.141892,
2003-04-21, 00:30:00,VALID,916.817,VALID,0,VALID,100,VALID,0.169808,VALID,20.0996,VALID,24,VALID,0.204564,
2003-04-21, 00:31:00,VALID,916.833,VALID,0,VALID,100,VALID,0.237732,VALID,20.0673,VALID,24,VALID,0.0540707,
2003-04-21, 00:32:00,VALID,916.842,VALID,0,VALID,100,VALID,0.152827,VALID,20.0641,VALID,74,VALID,0.212838,
2003-04-21, 00:33:00,VALID,916.839,VALID,0,VALID,100,VALID,0.254712,VALID,20.0579,VALID,144,VALID,0.367399,
2003-04-21, 00:34:00,VALID,916.84,VALID,0,VALID,100,VALID,0.220751,VALID,20.0417,VALID,144,VALID,0.544613,
2003-04-21, 00:35:00,VALID,916.849,VALID,0,VALID,100,VALID,0.220751,VALID,20.0295,VALID,144,VALID,0.524493,
2003-04-21, 00:36:00,VALID,916.834,VALID,0,VALID,100,VALID,0.20377,VALID,20.0158,VALID,146,VALID,0.441707,
2003-04-21, 00:37:00,VALID,916.828,VALID,0,VALID,100,VALID,0.237732,VALID,20.0457,VALID,174,VALID,0.462838,
2003-04-21, 00:38:00,VALID,916.827,VALID,0,VALID,100,VALID,0.237732,VALID,20.0808,VALID,185,VALID,0.216283,
2003-04-21, 00:39:00,VALID,916.814,VALID,0,VALID,100,VALID,0.305655,VALID,20.079,VALID,190,VALID,0.527232,
2003-04-21, 00:40:00,VALID,916.8,VALID,0,VALID,100,VALID,0.339617,VALID,20.0922,VALID,171,VALID,1.197,
2003-04-21, 00:41:00,VALID,916.79,VALID,0,VALID,100,VALID,0.339617,VALID,20.0854,VALID,172,VALID,1.19732,
2003-04-21, 00:42:00,VALID,916.765,VALID,0,VALID,100,VALID,0.373578,VALID,20.0849,VALID,170,VALID,1.11362,
2003-04-21, 00:43:00,VALID,916.764,VALID,0,VALID,100,VALID,0.305655,VALID,20.1078,VALID,175,VALID,1.01605,
2003-04-21, 00:44:00,VALID,916.744,VALID,0,VALID,100,VALID,0.322636,VALID,20.128,VALID,171,VALID,0.763238,
2003-04-21, 00:45:00,VALID,916.727,VALID,0,VALID,100,VALID,0.356597,VALID,20.1345,VALID,160,VALID,0.524805,
2003-04-21, 00:46:00,VALID,916.693,VALID,0,VALID,100,VALID,0.373578,VALID,20.1372,VALID,178,VALID,0.672476,
2003-04-21, 00:47:00,VALID,916.674,VALID,0,VALID,100,VALID,0.356597,VALID,20.1337,VALID,164,VALID,0.588199,
2003-04-21, 00:48:00,VALID,916.636,VALID,0,VALID,100,VALID,0.305655,VALID,20.1402,VALID,181,VALID,0.272352,
2003-04-21, 00:49:00,VALID,916.6,VALID,0,VALID,100,VALID,0.356597,VALID,20.1469,VALID,178,VALID,0.217694,
2003-04-21, 00:50:00,VALID,916.572,VALID,0,VALID,100,VALID,0.305655,VALID,20.1534,VALID,142,VALID,0.543997,
2003-04-21, 00:51:00,VALID,916.548,VALID,0,VALID,100,VALID,0.356597,VALID,20.1402,VALID,124,VALID,0.403783,
2003-04-21, 00:52:00,VALID,916.533,VALID,0,VALID,100,VALID,0.271693,VALID,20.1437,VALID,110,VALID,0.600507,
2003-04-21, 00:53:00,VALID,916.526,VALID,0,VALID,100,VALID,0.373578,VALID,20.134,VALID,99,VALID,0.757601,
2003-04-21, 00:54:00,VALID,916.519,VALID,0,VALID,100,VALID,0.322636,VALID,20.1282,VALID,102,VALID,1.07422,
2003-04-21, 00:55:00,VALID,916.52,VALID,0,VALID,100,VALID,0.254712,VALID,20.1347,VALID,99,VALID,0.929476,
2003-04-21, 00:56:00,VALID,916.509,VALID,0,VALID,100,VALID,0.220751,VALID,20.1646,VALID,130,VALID,0.522636,
2003-04-21, 00:57:00,VALID,916.503,VALID,0,VALID,100,VALID,0.271693,VALID,20.1511,VALID,123,VALID,0.734375,
2003-04-21, 00:58:00,VALID,916.501,VALID,0,VALID,100,VALID,0.322636,VALID,20.1678,VALID,110,VALID,0.483964,
2003-04-21, 00:59:00,VALID,916.488,VALID,0,VALID,100,VALID,0.254712,VALID,20.1775,VALID,91,VALID,0.299107,
2003-04-21, 01:00:00,VALID,916.482,VALID,0,VALID,100,VALID,0.305655,VALID,20.1904,VALID,126,VALID,0.508657,
2003-04-21, 01:01:00,VALID,916.471,VALID,0,VALID,100,VALID,0.271693,VALID,20.2002,VALID,133,VALID,0.763822,
2003-04-21, 01:02:00,VALID,916.441,VALID,0,VALID,100,VALID,0.254712,VALID,20.1964,VALID,153,VALID,1.06964,
2003-04-21, 01:03:00,VALID,916.418,VALID,0,VALID,100,VALID,0.20377,VALID,20.2034,VALID,164,VALID,0.430321,
2003-04-21, 01:04:00,VALID,916.402,VALID,0,VALID,100,VALID,0.271693,VALID,20.2099,VALID,174,VALID,0.485243,
2003-04-21, 01:05:00,VALID,916.379,VALID,0,VALID,100,VALID,0.305655,VALID,20.2034,VALID,166,VALID,0.213086,
2003-04-21, 01:06:00,VALID,916.359,VALID,0,VALID,100,VALID,0.288674,VALID,20.2069,VALID,166,VALID,0.167869,
2003-04-21, 01:07:00,VALID,916.34,VALID,0,VALID,100,VALID,0.254712,VALID,20.1842,VALID,158,VALID,0.421053,
2003-04-21, 01:08:00,VALID,916.332,VALID,0,VALID,100,VALID,0.237732,VALID,20.191,VALID,153,VALID,0.161458,
2003-04-21, 01:09:00,VALID,916.316,VALID,0,VALID,100,VALID,0.288674,VALID,20.1708,VALID,148,VALID,0.352407,
2003-04-21, 01:10:00,VALID,916.307,VALID,0,VALID,100,VALID,0.20377,VALID,20.1541,VALID,139,VALID,0.445313,
2003-04-21, 01:11:00,VALID,916.292,VALID,0,VALID,100,VALID,0.271693,VALID,20.1678,VALID,133,VALID,0.205387,
2003-04-21, 01:12:00,VALID,916.278,VALID,0,VALID,100,VALID,0.186789,VALID,20.1576,VALID,136,VALID,0.289063,
2003-04-21, 01:13:00,VALID,916.263,VALID,0,VALID,100,VALID,0.288674,VALID,20.1613,VALID,135,VALID,0.105152,
2003-04-21, 01:14:00,VALID,916.248,VALID,0,VALID,100,VALID,0.288674,VALID,20.1613,VALID,135,VALID,0.0172697,
2003-04-21, 01:15:00,VALID,916.253,VALID,0,VALID,100,VALID,0.254712,VALID,20.1352,VALID,135,VALID,0,
2003-04-21, 01:16:00,VALID,916.234,VALID,0,VALID,100,VALID,0.254712,VALID,20.1484,VALID,135,VALID,0,
2003-04-21, 01:17:00,VALID,916.248,VALID,0,VALID,100,VALID,0.237732,VALID,20.1449,VALID,135,VALID,0,
2003-04-21, 01:18:00,VALID,916.249,VALID,0,VALID,100,VALID,0.288674,VALID,20.1514,VALID,135,VALID,0,
2003-04-21, 01:19:00,VALID,916.244,VALID,0,VALID,100,VALID,0.20377,VALID,20.1417,VALID,135,VALID,0,
2003-04-21, 01:20:00,VALID,916.241,VALID,0,VALID,100,VALID,0.237732,VALID,20.1678,VALID,135,VALID,0,
2003-04-21, 01:21:00,VALID,916.224,VALID,0,VALID,100,VALID,0.254712,VALID,20.1546,VALID,135,VALID,0.0108173,
2003-04-21, 01:22:00,VALID,916.206,VALID,0,VALID,100,VALID,0.322636,VALID,20.1546,VALID,115,VALID,0.25692,
2003-04-21, 01:23:00,VALID,916.203,VALID,0,VALID,100,VALID,0.20377,VALID,20.1253,VALID,68,VALID,0.494088,
2003-04-21, 01:24:00,VALID,916.19,VALID,0,VALID,100,VALID,0.271693,VALID,20.1126,VALID,67,VALID,0.606988,
2003-04-21, 01:25:00,VALID,916.178,VALID,0,VALID,100,VALID,0.288674,VALID,20.1061,VALID,67,VALID,0.517773,
2003-04-21, 01:26:00,VALID,916.177,VALID,0,VALID,100,VALID,0.288674,VALID,20.1191,VALID,66,VALID,0.467548,
2003-04-21, 01:27:00,VALID,916.17,VALID,0,VALID,100,VALID,0.305655,VALID,20.1327,VALID,67,VALID,0.320518,
2003-04-21, 01:28:00,VALID,916.156,VALID,0,VALID,100,VALID,0.237732,VALID,20.1258,VALID,67,VALID,0.333333,
2003-04-21, 01:29:00,VALID,916.156,VALID,0,VALID,100,VALID,0.271693,VALID,20.1158,VALID,67,VALID,0.404983,
2003-04-21, 01:30:00,VALID,916.139,VALID,0,VALID,100,VALID,0.20377,VALID,20.086,VALID,67,VALID,0.465666,
2003-04-21, 01:31:00,VALID,916.111,VALID,0,VALID,100,VALID,0.305655,VALID,20.0969,VALID,67,VALID,0.531867,
2003-04-21, 01:32:00,VALID,916.107,VALID,0,VALID,100,VALID,0.186789,VALID,20.0832,VALID,69,VALID,0.701436,
2003-04-21, 01:33:00,VALID,916.101,VALID,0,VALID,100,VALID,0.271693,VALID,20.0929,VALID,86,VALID,0.830448,
2003-04-21, 01:34:00,VALID,916.103,VALID,0,VALID,100,VALID,0.254712,VALID,20.0964,VALID,87,VALID,0.770148,
2003-04-21, 01:35:00,VALID,916.098,VALID,0,VALID,100,VALID,0.254712,VALID,20.0964,VALID,87,VALID,0.644848,
2003-04-21, 01:36:00,VALID,916.103,VALID,0,VALID,100,VALID,0.20377,VALID,20.1066,VALID,87,VALID,0.689103,
2003-04-21, 01:37:00,VALID,916.099,VALID,0,VALID,100,VALID,0.237732,VALID,20.1131,VALID,87,VALID,0.743666,
2003-04-21, 01:38:00,VALID,916.089,VALID,0,VALID,100,VALID,0.288674,VALID,20.0899,VALID,84,VALID,0.724301,
2003-04-21, 01:39:00,VALID,916.058,VALID,0,VALID,100,VALID,0.186789,VALID,20.074,VALID,92,VALID,0.744866,
2003-04-21, 01:40:00,VALID,916.04,VALID,0,VALID,100,VALID,0.254712,VALID,20.0994,VALID,97,VALID,0.673353,
2003-04-21, 01:41:00,VALID,916.02,VALID,0,VALID,100,VALID,0.237732,VALID,20.1121,VALID,83,VALID,0.466747,
2003-04-21, 01:42:00,VALID,915.987,VALID,0,VALID,100,VALID,0.254712,VALID,20.123,VALID,68,VALID,0.789955,
2003-04-21, 01:43:00,VALID,915.97,VALID,0,VALID,100,VALID,0.220751,VALID,20.1099,VALID,60,VALID,0.680743,
2003-04-21, 01:44:00,VALID,915.96,VALID,0,VALID,100,VALID,0.254712,VALID,20.0927,VALID,74,VALID,0.620443,
2003-04-21, 01:45:00,VALID,915.94,VALID,0,VALID,100,VALID,0.237732,VALID,20.0867,VALID,98,VALID,0.568555,
2003-04-21, 01:46:00,VALID,915.929,VALID,0,VALID,100,VALID,0.237732,VALID,20.0905,VALID,92,VALID,0.482572,
2003-04-21, 01:47:00,VALID,915.907,VALID,0,VALID,100,VALID,0.220751,VALID,20.0773,VALID,95,VALID,0.549959,
2003-04-21, 01:48:00,VALID,915.892,VALID,0,VALID,100,VALID,0.135847,VALID,20.0842,VALID,111,VALID,0.611979,
2003-04-21, 01:49:00,VALID,915.875,VALID,0,VALID,100,VALID,0.20377,VALID,20.0743,VALID,107,VALID,0.824958,
2003-04-21, 01:50:00,VALID,915.852,VALID,0,VALID,100,VALID,0.135847,VALID,20.0638,VALID,86,VALID,0.420025,
2003-04-21, 01:51:00,VALID,915.834,VALID,0,VALID,100,VALID,0.220751,VALID,20.0544,VALID,86,VALID,0.315995,
2003-04-21, 01:52:00,VALID,915.814,VALID,0,VALID,100,VALID,0.118866,VALID,20.0643,VALID,150,VALID,0.342272,
2003-04-21, 01:53:00,VALID,915.804,VALID,0,VALID,100,VALID,0.254712,VALID,20.081,VALID,147,VALID,0.243454,
2003-04-21, 01:54:00,VALID,915.796,VALID,0,VALID,100,VALID,0.186789,VALID,20.0713,VALID,122,VALID,0.127056,
2003-04-21, 01:55:00,VALID,915.794,VALID,0,VALID,100,VALID,0.152827,VALID,20.0648,VALID,122,VALID,0,
2003-04-21, 01:56:00,VALID,915.803,VALID,0,VALID,100,VALID,0.101885,VALID,20.0646,VALID,122,VALID,0,
2003-04-21, 01:57:00,VALID,915.795,VALID,0,VALID,100,VALID,0.118866,VALID,20.0745,VALID,122,VALID,0,
2003-04-21, 01:58:00,VALID,915.786,VALID,0,VALID,100,VALID,0.169808,VALID,20.0745,VALID,91,VALID,0.150699,
2003-04-21, 01:59:00,VALID,915.775,VALID,0,VALID,100,VALID,0.101885,VALID,20.0905,VALID,33,VALID,0.684375,
2003-04-21, 02:00:00,VALID,915.765,VALID,0,VALID,100,VALID,0.152827,VALID,20.0808,VALID,32,VALID,0.262669,
2003-04-21, 02:01:00,VALID,915.734,VALID,0,VALID,100,VALID,0.118866,VALID,20.0808,VALID,32,VALID,0,
2003-04-21, 02:02:00,VALID,915.712,VALID,0,VALID,100,VALID,0.169808,VALID,20.0847,VALID,32,VALID,0.0270089,
2003-04-21, 02:03:00,VALID,915.685,VALID,0,VALID,100,VALID,0.0679233,VALID,20.0745,VALID,32,VALID,0.00950169,
2003-04-21, 02:04:00,VALID,915.66,VALID,0,VALID,100,VALID,0.118866,VALID,20.0745,VALID,32,VALID,0.0238715,
2003-04-21, 02:05:00,VALID,915.649,VALID,0,VALID,100,VALID,0.135847,VALID,20.075,VALID,358,VALID,0.258594,
2003-04-21, 02:06:00,VALID,915.631,VALID,0,VALID,100,VALID,0.118866,VALID,20.0775,VALID,330,VALID,0.339944,
2003-04-21, 02:07:00,VALID,915.63,VALID,0,VALID,100,VALID,0.118866,VALID,20.0651,VALID,255,VALID,0.581209,
2003-04-21, 02:08:00,VALID,915.623,VALID,0,VALID,100,VALID,0.0509425,VALID,20.0743,VALID,244,VALID,0.551432,
2003-04-21, 02:09:00,VALID,915.618,VALID,0,VALID,100,VALID,0.220751,VALID,20.073,VALID,224,VALID,0.421875,
2003-04-21, 02:10:00,VALID,915.616,VALID,0,VALID,100,VALID,0.152827,VALID,20.0857,VALID,207,VALID,0.351768,
2003-04-21, 02:11:00,VALID,915.608,VALID,0,VALID,100,VALID,0.220751,VALID,20.0698,VALID,208,VALID,0.139186,
2003-04-21, 02:12:00,VALID,915.592,VALID,0,VALID,100,VALID,0.101885,VALID,20.0897,VALID,208,VALID,0.314189,
2003-04-21, 02:13:00,VALID,915.582,VALID,0,VALID,100,VALID,0.254712,VALID,20.0797,VALID,216,VALID,0.404983,
2003-04-21, 02:14:00,VALID,915.569,VALID,0,VALID,100,VALID,0.237732,VALID,20.0728,VALID,229,VALID,0.488898,
2003-04-21, 02:15:00,VALID,915.568,VALID,0,VALID,100,VALID,0.220751,VALID,20.0534,VALID,232,VALID,0.394848,
2003-04-21, 02:16:00,VALID,915.567,VALID,0,VALID,100,VALID,0.20377,VALID,20.0596,VALID,274,VALID,0.351963,
2003-04-21, 02:17:00,VALID,915.562,VALID,0,VALID,100,VALID,0.20377,VALID,20.076,VALID,293,VALID,0.107897,
2003-04-21, 02:18:00,VALID,915.562,VALID,0,VALID,100,VALID,0.237732,VALID,20.0862,VALID,293,VALID,0.0583882,
2003-04-21, 02:19:00,VALID,915.581,VALID,0,VALID,100,VALID,0.186789,VALID,20.0792,VALID,293,VALID,0.116964,
2003-04-21, 02:20:00,VALID,915.584,VALID,0,VALID,100,VALID,0.254712,VALID,20.0698,VALID,293,VALID,0.227618,
2003-04-21, 02:21:00,VALID,915.6,VALID,0,VALID,100,VALID,0.186789,VALID,20.0832,VALID,280,VALID,0.252404,
2003-04-21, 02:22:00,VALID,915.602,VALID,0,VALID,100,VALID,0.237732,VALID,20.0832,VALID,245,VALID,0.210045,
2003-04-21, 02:23:00,VALID,915.594,VALID,0,VALID,100,VALID,0.169808,VALID,20.0832,VALID,245,VALID,0.332981,
2003-04-21, 02:24:00,VALID,915.599,VALID,0,VALID,100,VALID,0.220751,VALID,20.08,VALID,245,VALID,0.18967,
2003-04-21, 02:25:00,VALID,915.592,VALID,0,VALID,100,VALID,0.237732,VALID,20.0733,VALID,245,VALID,0.149805,
2003-04-21, 02:26:00,VALID,915.584,VALID,0,VALID,100,VALID,0.237732,VALID,20.0763,VALID,245,VALID,0.271034,
2003-04-21, 02:27:00,VALID,915.568,VALID,0,VALID,100,VALID,0.220751,VALID,20.0603,VALID,210,VALID,0.180921,
2003-04-21, 02:28:00,VALID,915.564,VALID,0,VALID,100,VALID,0.135847,VALID,20.0768,VALID,207,VALID,0.239366,
2003-04-21, 02:29:00,VALID,915.544,VALID,0,VALID,100,VALID,0.186789,VALID,20.0633,VALID,213,VALID,0.191301,
2003-04-21, 02:30:00,VALID,915.533,VALID,0,VALID,100,VALID,0.118866,VALID,20.0663,VALID,207,VALID,0.00205592,
2003-04-21, 02:31:00,VALID,915.515,VALID,0,VALID,100,VALID,0.220751,VALID,20.0738,VALID,207,VALID,0.0594161,
2003-04-21, 02:32:00,VALID,915.506,VALID,0,VALID,100,VALID,0.0849042,VALID,20.0768,VALID,178,VALID,0.337204,
2003-04-21, 02:33:00,VALID,915.484,VALID,0,VALID,100,VALID,0.254712,VALID,20.0631,VALID,53,VALID,0.495988,
2003-04-21, 02:34:00,VALID,915.468,VALID,0,VALID,100,VALID,0.271693,VALID,20.0369,VALID,52,VALID,0.407278,
2003-04-21, 02:35:00,VALID,915.449,VALID,0,VALID,100,VALID,0.20377,VALID,20.0116,VALID,46,VALID,0.800887,
2003-04-21, 02:36:00,VALID,915.426,VALID,0,VALID,100,VALID,0.152827,VALID,19.9922,VALID,38,VALID,1.01062,
2003-04-21, 02:37:00,VALID,915.403,VALID,0,VALID,100,VALID,0.271693,VALID,19.9633,VALID,45,VALID,0.997677,
2003-04-21, 02:38:00,VALID,915.381,VALID,0,VALID,100,VALID,0.254712,VALID,19.9507,VALID,48,VALID,0.888158,
2003-04-21, 02:39:00,VALID,915.356,VALID,0,VALID,100,VALID,0.0679233,VALID,19.9425,VALID,56,VALID,0.679241,
2003-04-21, 02:40:00,VALID,915.34,VALID,0,VALID,100,VALID,0.135847,VALID,19.9293,VALID,57,VALID,0.464316,
2003-04-21, 02:41:00,VALID,915.332,VALID,0,VALID,100,VALID,0.118866,VALID,19.9198,VALID,57,VALID,0.597957,
2003-04-21, 02:42:00,VALID,915.324,VALID,0,VALID,100,VALID,0.152827,VALID,19.894,VALID,57,VALID,0.614509,
2003-04-21, 02:43:00,VALID,915.324,VALID,0,VALID,100,VALID,0.101885,VALID,19.8775,VALID,62,VALID,0.736275,
2003-04-21, 02:44:00,VALID,915.314,VALID,0,VALID,100,VALID,0.169808,VALID,19.8711,VALID,80,VALID,0.997179,
2003-04-21, 02:45:00,VALID,915.302,VALID,0,VALID,100,VALID,0.169808,VALID,19.8778,VALID,85,VALID,0.777344,
2003-04-21, 02:46:00,VALID,915.293,VALID,0,VALID,100,VALID,0.169808,VALID,19.8638,VALID,125,VALID,0.846354,
2003-04-21, 02:47:00,VALID,915.261,VALID,0,VALID,100,VALID,0.169808,VALID,19.8519,VALID,138,VALID,0.719161,
2003-04-21, 02:48:00,VALID,915.251,VALID,0,VALID,100,VALID,0.0849042,VALID,19.8449,VALID,140,VALID,0.621311,
2003-04-21, 02:49:00,VALID,915.243,VALID,0,VALID,100,VALID,0.152827,VALID,19.8454,VALID,118,VALID,0.598818,
2003-04-21, 02:50:00,VALID,915.236,VALID,0,VALID,100,VALID,0.0509425,VALID,19.8186,VALID,117,VALID,0.736225,
2003-04-21, 02:51:00,VALID,915.225,VALID,0,VALID,100,VALID,0.169808,VALID,19.8328,VALID,99,VALID,0.402961,
2003-04-21, 02:52:00,VALID,915.238,VALID,0,VALID,100,VALID,0.101885,VALID,19.8258,VALID,120,VALID,0.550465,
2003-04-21, 02:53:00,VALID,915.253,VALID,0,VALID,100,VALID,0.169808,VALID,19.8392,VALID,121,VALID,0.444257,
2003-04-21, 02:54:00,VALID,915.266,VALID,0,VALID,100,VALID,0.169808,VALID,19.8452,VALID,124,VALID,0.575041,
2003-04-21, 02:55:00,VALID,915.286,VALID,0,VALID,100,VALID,0.152827,VALID,19.8551,VALID,125,VALID,0.462627,
2003-04-21, 02:56:00,VALID,915.311,VALID,0,VALID,100,VALID,0.118866,VALID,19.8549,VALID,144,VALID,0.4998,
2003-04-21, 02:57:00,VALID,915.316,VALID,0,VALID,100,VALID,0.152827,VALID,19.8482,VALID,138,VALID,0.666174,
2003-04-21, 02:58:00,VALID,915.338,VALID,0,VALID,100,VALID,0.186789,VALID,19.8487,VALID,134,VALID,0.482319,
2003-04-21, 02:59:00,VALID,915.32,VALID,0,VALID,100,VALID,0.118866,VALID,19.8387,VALID,129,VALID,0.409821,
2003-04-21, 03:00:00,VALID,915.319,VALID,0,VALID,100,VALID,0.152827,VALID,19.839,VALID,122,VALID,0.225084,
2003-04-21, 03:01:00,VALID,915.303,VALID,0,VALID,100,VALID,0.118866,VALID,19.8131,VALID,121,VALID,0.471354,
2003-04-21, 03:02:00,VALID,915.279,VALID,0,VALID,100,VALID,0.20377,VALID,19.8168,VALID,121,VALID,0.508705,
2003-04-21, 03:03:00,VALID,915.272,VALID,0,VALID,100,VALID,0.135847,VALID,19.7865,VALID,122,VALID,0.472551,
2003-04-21, 03:04:00,VALID,915.26,VALID,0,VALID,100,VALID,0.186789,VALID,19.7671,VALID,134,VALID,0.602865,
2003-04-21, 03:05:00,VALID,915.25,VALID,0,VALID,100,VALID,0.20377,VALID,19.7348,VALID,136,VALID,0.871289,
2003-04-21, 03:06:00,VALID,915.235,VALID,0,VALID,100,VALID,0.20377,VALID,19.745,VALID,144,VALID,0.805689,
2003-04-21, 03:07:00,VALID,915.23,VALID,0,VALID,100,VALID,0.169808,VALID,19.7159,VALID,133,VALID,0.55037,
2003-04-21, 03:08:00,VALID,915.223,VALID,0,VALID,100,VALID,0.135847,VALID,19.7159,VALID,124,VALID,0.4477,
2003-04-21, 03:09:00,VALID,915.189,VALID,0,VALID,100,VALID,0.288674,VALID,19.7114,VALID,131,VALID,0.341639,
2003-04-21, 03:10:00,VALID,915.178,VALID,0,VALID,100,VALID,0.20377,VALID,19.7014,VALID,133,VALID,0.322163,
2003-04-21, 03:11:00,VALID,915.163,VALID,0,VALID,100,VALID,0.254712,VALID,19.689,VALID,133,VALID,0.137336,
2003-04-21, 03:12:00,VALID,915.157,VALID,0,VALID,100,VALID,0.186789,VALID,19.6793,VALID,126,VALID,0.371833,
2003-04-21, 03:13:00,VALID,915.159,VALID,0,VALID,100,VALID,0.288674,VALID,19.6693,VALID,119,VALID,0.289696,
2003-04-21, 03:14:00,VALID,915.17,VALID,0,VALID,100,VALID,0.254712,VALID,19.6497,VALID,110,VALID,0.693668,
2003-04-21, 03:15:00,VALID,915.179,VALID,0,VALID,100,VALID,0.254712,VALID,19.6375,VALID,106,VALID,0.793919,
2003-04-21, 03:16:00,VALID,915.18,VALID,0,VALID,100,VALID,0.186789,VALID,19.6271,VALID,100,VALID,0.719351,
2003-04-21, 03:17:00,VALID,915.178,VALID,0,VALID,100,VALID,0.220751,VALID,19.6345,VALID,108,VALID,0.915329,
2003-04-21, 03:18:00,VALID,915.187,VALID,0,VALID,100,VALID,0.237732,VALID,19.644,VALID,102,VALID,0.644942,
2003-04-21, 03:19:00,VALID,915.164,VALID,0,VALID,100,VALID,0.0679233,VALID,19.6522,VALID,96,VALID,0.791518,
2003-04-21, 03:20:00,VALID,915.131,VALID,0,VALID,100,VALID,0.101885,VALID,19.6517,VALID,86,VALID,0.396326,
2003-04-21, 03:21:00,VALID,915.114,VALID,0,VALID,100,VALID,0.135847,VALID,19.642,VALID,105,VALID,0.592348,
2003-04-21, 03:22:00,VALID,915.085,VALID,0,VALID,100,VALID,0.169808,VALID,19.6584,VALID,102,VALID,0.791071,
2003-04-21, 03:23:00,VALID,915.073,VALID,0,VALID,100,VALID,0.101885,VALID,19.6748,VALID,80,VALID,0.701436,
2003-04-21, 03:24:00,VALID,915.072,VALID,0,VALID,100,VALID,0.237732,VALID,19.6858,VALID,100,VALID,0.498915,
2003-04-21, 03:25:00,VALID,915.073,VALID,0,VALID,100,VALID,0.271693,VALID,19.6629,VALID,96,VALID,0.830273,
2003-04-21, 03:26:00,VALID,915.089,VALID,0,VALID,100,VALID,0.288674,VALID,19.6659,VALID,91,VALID,0.717949,
2003-04-21, 03:27:00,VALID,915.08,VALID,0,VALID,100,VALID,0.237732,VALID,19.6375,VALID,94,VALID,0.707442,
2003-04-21, 03:28:00,VALID,915.088,VALID,0,VALID,100,VALID,0.20377,VALID,19.6184,VALID,98,VALID,0.797092,
2003-04-21, 03:29:00,VALID,915.087,VALID,0,VALID,100,VALID,0.305655,VALID,19.6144,VALID,104,VALID,1.00021,
2003-04-21, 03:30:00,VALID,915.087,VALID,0,VALID,100,VALID,0.186789,VALID,19.6074,VALID,87,VALID,0.959293,
2003-04-21, 03:31:00,VALID,915.093,VALID,0,VALID,100,VALID,0.288674,VALID,19.6149,VALID,89,VALID,0.914268,
2003-04-21, 03:32:00,VALID,915.094,VALID,0,VALID,100,VALID,0.20377,VALID,19.6114,VALID,90,VALID,0.654983,
2003-04-21, 03:33:00,VALID,915.101,VALID,0,VALID,100,VALID,0.305655,VALID,19.6082,VALID,97,VALID,1.04856,
2003-04-21, 03:34:00,VALID,915.093,VALID,0,VALID,100,VALID,0.288674,VALID,19.6082,VALID,112,VALID,0.852385,
2003-04-21, 03:35:00,VALID,915.097,VALID,0,VALID,100,VALID,0.254712,VALID,19.5825,VALID,122,VALID,0.722128,
2003-04-21, 03:36:00,VALID,915.108,VALID,0,VALID,100,VALID,0.237732,VALID,19.5796,VALID,118,VALID,0.646835,
2003-04-21, 03:37:00,VALID,915.102,VALID,0,VALID,100,VALID,0.271693,VALID,19.5825,VALID,108,VALID,1.27492,
2003-04-21, 03:38:00,VALID,915.086,VALID,0,VALID,100,VALID,0.271693,VALID,19.5763,VALID,116,VALID,0.819901,
2003-04-21, 03:39:00,VALID,915.099,VALID,0,VALID,100,VALID,0.186789,VALID,19.5636,VALID,108,VALID,0.909375,
2003-04-21, 03:40:00,VALID,915.091,VALID,0,VALID,100,VALID,0.237732,VALID,19.5572,VALID,104,VALID,0.65625,
2003-04-21, 03:41:00,VALID,915.089,VALID,0,VALID,100,VALID,0.237732,VALID,19.541,VALID,119,VALID,0.864383,